Flag for U.S.A. Weather past 2 weeks in Santa Fe, New Mexico, U.S.A.

Now
31 °F

Light snow. Ice fog.


Feels Like: 31 °F
Forecast: 15 / 28 °F
Wind: No wind

Location: Santa Fe County Municipal Airport

Current Time: Dec 25, 2014 at 10:57:26 PM

Latest Report: Dec 25, 2014 at 9:53 PM


Visibility: 1 mi

Pressure: 29.70 "Hg

Humidity: 92%

Dew point: 29 °F

Location of Santa FeLocation

Historic Weather in Santa Fe — Graph

°F

Santa Fe temperature yesterday

Maximum temperature yesterday: 36 °F (at 2:53 PM)
Minimum temperature yesterday: 14 °F (at 4:53 AM)
Average temperature yesterday: 25 °F

Past Weeks' High & Low Weather Summary

 TemperatureHumidityPressure
High57 °F (Dec 11, 1:53 PM)96% (Dec 13, 11:53 PM)30.29 "Hg (Dec 13, 11:53 PM)
Low14 °F (Dec 24, 4:53 AM)28% (Dec 11, 11:53 AM)29.49 "Hg (Dec 22, 2:53 PM)
Average34 °F64%30.00 "Hg
* Reported Dec 10 8:53 PM — Dec 25 8:57 PM, Santa Fe, Weather by CustomWeather, © 2014

Note: Actual official high and low records may vary slightly from our data, if they occured in-between our weather recording intervals... More about our weather records

Advertising

Santa Fe weather history for previous 24 hours

 ConditionsComfort  
Time TempWeatherWind HumidityBarometerVisibility
8:57 PM
Dec 25
34 °FLight snow. Overcast.10 mph73%29.71 "Hg2 mi
7:53 PM35 °FOvercast.7 mph54%29.65 "Hg10 mi
6:53 PM35 °FOvercast.6 mph56%29.61 "Hg10 mi
5:53 PM35 °FMostly cloudy.No wind54%29.59 "Hg10 mi
4:53 PM38 °FSunny.3 mph45%29.57 "Hg10 mi
3:53 PM42 °FScattered clouds.No wind38%29.57 "Hg10 mi
2:53 PM43 °FPassing clouds.9 mph37%29.55 "Hg10 mi
1:53 PM45 °FPassing clouds.10 mph28%29.55 "Hg10 mi
12:53 PM40 °FMore clouds than sun.6 mph30%29.58 "Hg10 mi
11:53 AM38 °FOvercast.No wind30%29.65 "Hg10 mi
10:53 AM36 °FOvercast.7 mph32%29.70 "Hg10 mi
9:53 AM33 °FOvercast.8 mph38%29.73 "Hg10 mi
8:53 AM34 °FPartly sunny.5 mph37%29.69 "Hg10 mi
7:53 AM25 °FScattered clouds.6 mph53%29.75 "Hg10 mi
6:53 AM28 °FPassing clouds.3 mph43%29.71 "Hg10 mi
5:53 AM28 °FOvercast.3 mph41%29.72 "Hg10 mi
4:53 AM28 °FPassing clouds.No wind39%29.71 "Hg10 mi
3:53 AM26 °FClear.7 mph44%29.71 "Hg10 mi
2:53 AM28 °FClear.5 mph43%29.74 "Hg10 mi
1:53 AM28 °FClear.6 mph41%29.75 "Hg10 mi
12:53 AM29 °FClear.6 mph38%29.76 "Hg10 mi
11:53 PM
Dec 24
24 °FClear.9 mph52%29.84 "Hg10 mi
10:53 PM26 °FClear.3 mph52%29.88 "Hg10 mi
Weather by CustomWeather, © 2014

See weather overviewHow to use our weather pages